Three Rivers, MI

12:31 PM EST on February 27, 2017 (GMT -0500)
Three Rivers Municipal-Haines

Weather History for KHAI - December, 2007

Change the Weather History Date:

Monday, December 31, 2007

  Actual Average Record
Temperature  
Mean Temperature 29 °F -  
Max Temperature 32 °F 32 °F 60 °F (1965)
Min Temperature 26 °F 18 °F -15 °F (1976)
Degree Days  
Heating Degree Days 36    
Moisture  
Dew Point 29 °F    
Average Humidity 96    
Maximum Humidity 100    
Minimum Humidity 93    
Precipitation  
Precipitation 0.00 in - - ()
Sea Level Pressure  
Sea Level Pressure 29.86 in    
Wind  
Wind Speed 2 mph (SSE)    
Max Wind Speed 10 mph    
Max Gust Speed -    
Visibility 3 miles    
Events Snow    
Averages and records for this station are not official NWS values.
T = Trace of Precipitation, MM = Missing Value Source: NWS Daily Summary

Daily Weather History Graph

Daily Weather History Graph

Search for Another Location

Airport or City:

Trip Planner

Search our weather history database for the weather conditions in past years. The results will help you decide how hot, cold, wet, or windy it might be!

Date:

Astronomy

Dec. 31, 2007 Rise Set
Actual Time 8:10 AM EST 5:20 PM EST
Civil Twilight 7:38 AM EST 5:52 PM EST
Nautical Twilight 7:03 AM EST 6:27 PM EST
Astronomical Twilight 6:29 AM EST 7:01 PM EST
Moon 12:53 AM EST (12/31) 12:16 PM EST (12/31)
Length of Visible Light 10h 13m
Length of Day
9h 10m
Waning Gibbous, 46% of the Moon is Illuminated
Dec 31
Waning Gibbous
Jan 8
New
Jan 15
First Quarter
Jan 22
Full
Jan 30
Last Quarter

Hourly Weather History & Observations

Time (EST) Temp. Windchill Dew Point Humidity Pressure Visibility Wind Dir Wind Speed Gust Speed Precip Events Conditions
12:14 AM 30.2 °F - 28.4 °F 93% 29.85 in 4.0 mi Calm Calm - N/A   Overcast
12:34 AM 30.2 °F - 28.4 °F 93% 29.85 in 4.0 mi Calm Calm - N/A   Overcast
12:55 AM 30.2 °F - 28.4 °F 93% 29.85 in 3.0 mi Calm Calm - N/A Snow Light Snow
1:14 AM 30.2 °F 26.7 °F 28.4 °F 93% 29.85 in 3.0 mi SSE 3.5 mph - N/A Snow Light Snow
1:34 AM 30.2 °F 26.7 °F 28.4 °F 93% 29.85 in 4.0 mi South 3.5 mph - N/A   Overcast
1:55 AM 30.2 °F 26.7 °F 28.4 °F 93% 29.85 in 4.0 mi South 3.5 mph - N/A   Overcast
2:14 AM 30.2 °F 25.4 °F 28.4 °F 93% 29.85 in 4.0 mi South 4.6 mph - N/A   Overcast
2:34 AM 30.2 °F 25.4 °F 28.4 °F 93% 29.85 in 4.0 mi South 4.6 mph - N/A   Overcast
2:55 AM 28.4 °F 23.3 °F 28.4 °F 100% 29.84 in 4.0 mi South 4.6 mph - N/A   Mostly Cloudy
3:14 AM 28.4 °F 23.3 °F 26.6 °F 93% 29.84 in 3.0 mi South 4.6 mph - N/A   Scattered Clouds
3:34 AM 28.4 °F 24.6 °F 26.6 °F 93% 29.85 in 3.0 mi South 3.5 mph - N/A   Mostly Cloudy
3:55 AM 26.6 °F - 26.6 °F 100% 29.85 in 3.0 mi Calm Calm - N/A   Mist
4:14 AM 26.6 °F - 26.6 °F 100% 29.84 in 2.0 mi Calm Calm - N/A   Mist
4:34 AM 26.6 °F - 26.6 °F 100% 29.85 in 2.0 mi Calm Calm - N/A   Overcast
4:55 AM 26.6 °F 22.6 °F 26.6 °F 100% 29.85 in 2.5 mi South 3.5 mph - N/A   Overcast
5:14 AM 28.4 °F 24.6 °F 28.4 °F 100% 29.85 in 3.0 mi South 3.5 mph - N/A   Overcast
5:34 AM 28.4 °F 23.3 °F 28.4 °F 100% 29.85 in 3.0 mi South 4.6 mph - N/A   Overcast
5:55 AM 28.4 °F 24.6 °F 28.4 °F 100% 29.85 in 3.0 mi South 3.5 mph - N/A   Overcast
6:14 AM 30.2 °F 26.7 °F 28.4 °F 93% 29.85 in 3.0 mi South 3.5 mph - N/A   Overcast
6:34 AM 28.4 °F - 28.4 °F 100% 29.86 in 3.0 mi Calm Calm - N/A   Overcast
6:55 AM 30.2 °F - 28.4 °F 93% 29.86 in 3.0 mi Calm Calm - N/A   Overcast
7:14 AM 28.4 °F - 28.4 °F 100% 29.86 in 2.5 mi Calm Calm - N/A   Overcast
7:34 AM 30.2 °F - 28.4 °F 93% 29.86 in 2.5 mi Calm Calm - N/A   Overcast
7:55 AM 30.2 °F - 28.4 °F 93% 29.87 in 2.5 mi Calm Calm - N/A   Overcast
8:14 AM 30.2 °F - 28.4 °F 93% 29.87 in 2.0 mi Calm Calm - N/A   Overcast
8:34 AM 28.4 °F - 28.4 °F 100% 29.87 in 1.5 mi Calm Calm - N/A   Overcast
8:55 AM 28.4 °F - 28.4 °F 100% 29.88 in 1.5 mi Calm Calm - N/A   Overcast
9:14 AM 28.4 °F - 28.4 °F 100% 29.89 in 1.0 mi Calm Calm - N/A   Overcast
9:34 AM 30.2 °F - 28.4 °F 93% 29.87 in 1.5 mi Calm Calm - N/A   Overcast
9:55 AM 30.2 °F - 30.2 °F 100% 29.89 in 2.0 mi Calm Calm - N/A   Overcast
10:14 AM 32.0 °F 26.4 °F 30.2 °F 93% 29.90 in 2.5 mi South 5.8 mph - N/A   Overcast
10:34 AM 32.0 °F 26.4 °F 30.2 °F 93% 29.92 in 2.5 mi South 5.8 mph - N/A   Overcast
10:55 AM 32.0 °F 28.7 °F 30.2 °F 93% 29.92 in 2.5 mi South 3.5 mph - N/A   Overcast
11:14 AM 32.0 °F - 30.2 °F 93% 29.91 in 2.5 mi Calm Calm - N/A   Overcast
11:34 AM 32.0 °F - 30.2 °F 93% 29.90 in 2.5 mi Calm Calm - N/A   Overcast
11:55 AM 32.0 °F 28.7 °F 30.2 °F 93% 29.90 in 2.5 mi South 3.5 mph - N/A   Overcast
12:14 PM 32.0 °F 28.7 °F 30.2 °F 93% 29.90 in 2.0 mi South 3.5 mph - N/A   Overcast
12:34 PM 32.0 °F 27.5 °F 32.0 °F 100% 29.89 in 1.8 mi SSW 4.6 mph - N/A   Overcast
12:55 PM 32.0 °F - 32.0 °F 100% 29.88 in 2.0 mi Calm Calm - N/A   Overcast
1:14 PM 32.0 °F 26.4 °F 32.0 °F 100% 29.88 in 2.0 mi South 5.8 mph - N/A   Overcast
1:34 PM 32.0 °F 27.5 °F 32.0 °F 100% 29.88 in 2.0 mi SSE 4.6 mph - N/A   Overcast
1:55 PM 32.0 °F 24.8 °F 32.0 °F 100% 29.88 in 2.0 mi South 8.1 mph - N/A   Overcast
2:14 PM 32.0 °F 26.4 °F 32.0 °F 100% 29.87 in 2.0 mi South 5.8 mph - N/A   Overcast
2:34 PM 32.0 °F 26.4 °F 32.0 °F 100% 29.87 in 2.5 mi SSE 5.8 mph - N/A   Overcast
2:55 PM 32.0 °F 28.7 °F 32.0 °F 100% 29.85 in 2.5 mi SE 3.5 mph - N/A   Overcast
3:14 PM 32.0 °F 27.5 °F 30.2 °F 93% 29.86 in 3.0 mi South 4.6 mph - N/A   Overcast
3:34 PM 32.0 °F 28.7 °F 30.2 °F 93% 29.86 in 3.0 mi ESE 3.5 mph - N/A   Overcast
3:55 PM 32.0 °F 27.5 °F 30.2 °F 93% 29.85 in 3.0 mi ESE 4.6 mph - N/A   Overcast
4:14 PM 32.0 °F 28.7 °F 30.2 °F 93% 29.85 in 3.0 mi SE 3.5 mph - N/A   Overcast
4:34 PM 32.0 °F 27.5 °F 30.2 °F 93% 29.83 in 3.0 mi ESE 4.6 mph - N/A   Overcast
4:55 PM 32.0 °F 26.4 °F 30.2 °F 93% 29.82 in 3.0 mi East 5.8 mph - N/A   Overcast
5:14 PM 32.0 °F 26.4 °F 30.2 °F 93% 29.82 in 4.0 mi ENE 5.8 mph - N/A   Overcast
5:34 PM 32.0 °F 26.4 °F 30.2 °F 93% 29.81 in 5.0 mi East 5.8 mph - N/A   Overcast
5:55 PM 32.0 °F 24.8 °F 30.2 °F 93% 29.79 in 5.0 mi East 8.1 mph - N/A   Overcast
6:14 PM 32.0 °F 24.8 °F 30.2 °F 93% 29.79 in 5.0 mi East 8.1 mph - N/A   Overcast
6:34 PM 32.0 °F 23.6 °F 30.2 °F 93% 29.79 in 5.0 mi East 10.4 mph - N/A   Overcast
6:55 PM 32.0 °F 26.4 °F 30.2 °F 93% 29.79 in 5.0 mi East 5.8 mph - N/A   Overcast
7:14 PM 32.0 °F 28.7 °F 30.2 °F 93% 29.80 in 5.0 mi NNE 3.5 mph - N/A   Overcast
7:34 PM 32.0 °F - 30.2 °F 93% 29.81 in 5.0 mi Calm Calm - N/A   Overcast
8:14 PM 32.0 °F 27.5 °F 32.0 °F 100% 29.79 in 2.5 mi NE 4.6 mph - N/A Snow Light Snow
8:34 PM 32.0 °F 27.5 °F 32.0 °F 100% 29.77 in 1.8 mi NE 4.6 mph - N/A Snow Light Snow
8:55 PM 32.0 °F 25.6 °F 32.0 °F 100% 29.76 in 1.5 mi NE 6.9 mph - N/A Snow Light Snow
9:34 PM 32.0 °F 24.8 °F 32.0 °F 100% 29.72 in 1.2 mi NE 8.1 mph - N/A Snow Light Snow
9:55 PM 32.0 °F 24.2 °F 32.0 °F 100% 29.70 in 1.2 mi NE 9.2 mph - N/A Snow Light Snow
10:14 PM 32.0 °F 25.6 °F 32.0 °F 100% 29.69 in 1.0 mi NE 6.9 mph - N/A Snow Light Snow
10:34 PM 32.0 °F 24.8 °F 32.0 °F 100% 29.67 in 1.0 mi NE 8.1 mph - N/A Snow Light Snow
10:55 PM 32.0 °F 25.6 °F 32.0 °F 100% 29.66 in 0.8 mi NE 6.9 mph - N/A Snow Light Snow
11:14 PM 32.0 °F 25.6 °F 32.0 °F 100% 29.65 in 0.8 mi NE 6.9 mph - N/A Snow Snow
11:34 PM 32.0 °F 25.6 °F 32.0 °F 100% 29.64 in 0.5 mi NNE 6.9 mph - N/A Snow Snow
11:55 PM 32.0 °F 26.4 °F 32.0 °F 100% 29.64 in 0.8 mi North 5.8 mph - N/A Snow Snow